Showing default

AETHER-3, 67374

Orbit data source: Space-Track

AETHER-3, 67374 is a payload satellite owned by Kepler Comms (CA) in SSO that was launched on Sun, 11 Jan 2026 UTC via an FALCON 9 launch vehicle from the Air Force Western Test Range (AFWTR). Payload-class satellites include a variety of spacecraft equipped with specific instruments for various scientific and technological missions. These include communications satellites like Starlink; space stations such as the ISS; scientific satellites like the Hubble; Earth observation satellites from companies like Planet Labs, Umbra, and HawkEye 360; GPS; miniature CubeSats for education and research; and military/defense satellites.

Loading next visibility...
Identifier
67374, 2026-004M
Orbit
SSO
Country
Flag of CACA
Related business
Manufacturer
Kepler Comms
Mission
Operational Commercial Communications
Bus & Motor
KEPLER GEN2B, Unknown motor
Mass
300 kg wet, 300 kg dry
Launch date (UTC)
2026-01-11 (8 months ago)
Launch vehicle
FALCON 9
Launch site
Air Force Western Test Range (AFWTR)
Object type
Payload
Rocket body
Debris
Shape & HBR
Box + 2 Pan, 7.6 m
Radar Cross Section
4.448 m², Large (>1 m²)

Expand to show TLE details & history
Last TLE update: 23 hours ago

TLE from 23 hours ago
0 AETHER-3
1 67374U 26004M   26263.93453935  .00000392  00000-0  49761-4 0  9994
2 67374  97.8032 261.0015 0005247  94.3270 265.8546 14.86982087 37533
Epoch: 2026-09-20T22:25Z
TLE epoch observation values (Epoch: 2026-09-20T22:25:44.199Z)
Latitude
-0.00001°
Longitude
-75.25426°
Altitude
610.672 km
Speed
7.554 km/s
True Right ascension
17h 24m 00s
True Declination
0° 00' 00"
Sunlit
Object was in daylight at epoch
Visualization orbit readout
Latitude
Unknown
Longitude
Unknown
Altitude
Unknown
Speed
Unknown
Apparent Right ascension
Unknown
Apparent Declination
Unknown
Sunlit
N/A
Visualization observer readout
Local Sidereal Time
14:28:30
Azimuth
Unknown
Elevation
Unknown
Doppler factor
Unknown
Orbital elements
Apogee altitude
608.062 km
Perigee altitude
600.735 km
Semi-major axis
6,982.536 km
Eccentricity
0.00052
Inclination
97.8032°
RAAN
261.0015°
Arg. of periapsis
94.327°
True anomaly
265.79463°
Mean anomaly
265.8546°
Eccentric anomaly
265.82462°
Mean motion
3.71983 °/min
Orbital period
96.78 mins
BSTAR
0.000049761
Loading maneuver chart data...
Computing Atmospheric mass density...
Loading historical data...
Loading historical data...
Loading historical data...
Loading historical data...
Loading historical data...
Loading historical data...
Loading historical data...

Documentation

Showing up to 5 results
|